"America/Chicago Time","Lifetime Energy (kWh)","Power (W)","AC Volts RMS (V) ","AC Amps RMS (mA)","Grid Frequency (Hz)","Inverter Temperature (C)"
"03/12/12 08:49:00","23.6882","14.1","212.84","0","60.03","8"
"03/12/12 08:54:01","23.6886","10.6","213.03","2","60.03","9"
"03/12/12 08:59:00","23.6891","10.9","213.01","8","60.03","9"
"03/12/12 09:04:00","23.69","12.2","213.64","29","60.0","9"
"03/12/12 09:09:01","23.6907","15.8","214.15","0","60.03","9"
"03/12/12 09:14:00","23.6915","14.8","213.74","1","60.03","9"
"03/12/12 09:19:00","23.6923","11.8","213.03","7","60.0","9"
"03/12/12 09:23:59","23.6928","0.0","213.24","0","60.03","9"
"03/12/12 09:29:00","23.6933","12.2","212.18","104","60.0","9"
"03/12/12 09:34:01","23.6941","13.2","213.27","41","60.0","9"
"03/12/12 09:39:01","23.6953","14.4","212.79","224","60.03","9"
"03/12/12 09:44:01","23.6964","22.1","212.71","208","60.0","9"
"03/12/12 09:49:01","23.6975","16.3","213.41","0","60.03","9"
"03/12/12 09:54:01","23.6989","26.1","213.86","70","60.03","10"
"03/12/12 09:58:59","23.7005","30.0","213.85","100","60.03","10"
"03/12/12 10:04:00","23.7028","15.4","213.24","0","60.0","10"
"03/12/12 10:08:59","23.704","26.3","212.73","54","60.03","10"
"03/12/12 10:14:00","23.7054","15.3","212.76","202","60.07","11"
"03/12/12 10:19:00","23.7069","12.1","213.6","67","60.03","11"
"03/12/12 10:24:01","23.7085","29.4","214.4","76","60.0","11"
"03/12/12 10:29:00","23.7109","26.3","214.61","184","60.03","11"
"03/12/12 10:34:00","23.7134","29.5","214.46","263","60.03","11"
"03/12/12 10:39:00","23.7161","28.1","214.13","80","60.03","11"
"03/12/12 10:44:01","23.7181","22.4","214.13","252","60.03","11"
"03/12/12 10:49:01","23.7201","30.0","214.17","316","60.0","11"
"03/12/12 10:54:01","23.7222","13.3","213.89","153","60.0","12"
"03/12/12 10:59:01","23.7238","14.3","214.16","27","60.07","11"
"03/12/12 11:04:00","23.725","15.3","214.06","26","60.03","11"
"03/12/12 11:09:00","23.7263","15.0","214.08","71","60.03","12"
"03/12/12 11:14:00","23.7277","15.6","214.58","8","60.03","11"
"03/12/12 11:19:00","23.7289","6.8","214.34","121","60.03","11"
"03/12/12 11:24:00","23.73","17.6","213.56","76","60.0","11"
"03/12/12 11:29:01","23.7319","35.3","213.71","80","60.0","11"
"03/12/12 11:34:01","23.7337","16.3","214.29","139","60.0","11"
"03/12/12 11:39:01","23.7352","16.9","213.35","17","60.03","11"
"03/12/12 11:43:59","23.7374","30.1","214.42","255","60.0","11"
"03/12/12 11:49:00","23.74","24.5","214.15","229","60.03","11"
"03/12/12 11:54:00","23.7417","15.0","213.13","121","60.07","11"
"03/12/12 11:59:01","23.7432","23.4","214.24","49","60.03","11"
"03/12/12 12:04:00","23.7451","29.6","213.97","19","60.03","11"
"03/12/12 12:09:00","23.7477","44.0","214.4","324","60.0","11"
"03/12/12 12:14:00","23.7509","41.6","214.95","211","60.0","12"
"03/12/12 12:19:01","23.7545","42.3","214.33","149","60.0","13"
"03/12/12 12:24:00","23.7575","49.0","215.47","367","60.0","13"
"03/12/12 12:29:00","23.7605","35.4","214.3","301","60.03","13"
"03/12/12 12:34:00","23.7629","37.9","213.86","202","60.03","13"
"03/12/12 12:39:00","23.7653","25.4","214.42","224","60.03","13"
"03/12/12 12:44:01","23.7674","17.6","213.58","246","60.03","13"
"03/12/12 12:48:59","23.7692","18.1","213.74","23","60.03","13"
"03/12/12 12:54:01","23.7717","35.4","214.95","217","60.0","13"
"03/12/12 12:59:01","23.7743","34.2","214.21","101","60.03","13"
"03/12/12 13:04:01","23.7763","13.1","214.43","100","60.03","13"
"03/12/12 13:09:01","23.7779","16.2","213.86","85","60.03","13"
"03/12/12 13:14:00","23.7794","12.9","214.04","241","60.03","13"
"03/12/12 13:19:01","23.7817","29.8","213.63","221","60.07","13"
"03/12/12 13:24:01","23.7847","36.7","214.37","365","60.03","13"
"03/12/12 13:29:00","23.7879","34.3","214.2","196","60.03","13"
"03/12/12 13:34:01","23.7913","49.2","213.33","313","60.03","14"
"03/12/12 13:39:01","23.7949","41.6","214.57","109","60.03","15"
"03/12/12 13:44:00","23.7977","36.7","214.52","239","60.0","15"
"03/12/12 13:49:01","23.8002","44.4","215.67","223","60.03","16"
"03/12/12 13:54:01","23.8026","34.5","214.71","268","60.03","16"
"03/12/12 13:59:01","23.8057","50.9","215.53","184","59.96","16"
"03/12/12 14:04:00","23.8086","25.1","214.93","159","60.07","16"
"03/12/12 14:09:00","23.8109","45.4","215.22","276","60.03","16"
"03/12/12 14:14:00","23.8152","96.3","216.28","465","60.0","16"
"03/12/12 14:19:01","23.8249","125.2","217.0","586","60.0","18"
"03/12/12 14:24:01","23.8316","75.1","215.55","372","60.03","18"
"03/12/12 14:29:01","23.8363","57.2","215.52","221","60.03","18"
"03/12/12 14:34:00","23.8399","34.9","214.58","348","60.03","18"
"03/12/12 14:39:01","23.8428","32.0","213.86","82","60.03","17"
"03/12/12 14:44:00","23.846","47.3","214.02","399","60.0","17"
"03/12/12 14:49:01","23.8498","42.7","214.06","221","60.03","17"
"03/12/12 14:54:01","23.8536","42.5","215.11","371","60.0","17"
"03/12/12 14:59:01","23.8578","48.5","216.63","108","60.03","17"
"03/12/12 15:04:00","23.865","87.0","215.83","425","60.03","18"
"03/12/12 15:09:01","23.8711","100.4","216.95","484","60.0","18"
"03/12/12 15:14:00","23.8788","98.8","216.89","478","60.03","19"
"03/12/12 15:19:00","23.8864","100.4","215.98","483","60.0","20"
"03/12/12 15:24:00","23.895","124.5","216.58","585","60.03","21"
"03/12/12 15:29:00","23.9049","157.2","217.84","722","60.03","22"
"03/12/12 15:34:00","23.9153","142.7","217.43","661","60.0","23"
"03/12/12 15:39:01","23.9253","117.2","217.32","548","60.03","23"
"03/12/12 15:44:01","23.934","106.1","216.88","506","60.0","23"
"03/12/12 15:49:00","23.9423","113.1","216.19","540","60.03","23"
"03/12/12 15:54:00","23.9499","90.5","215.84","440","60.03","22"
"03/12/12 15:59:01","23.9556","18.4","214.23","322","60.03","22"
"03/12/12 16:04:01","23.96","67.7","216.36","338","60.03","22"
"03/12/12 16:09:00","23.9633","26.7","214.86","132","60.0","20"
"03/12/12 16:14:00","23.9648","19.8","214.3","171","60.0","20"
"03/12/12 16:19:00","23.9659","15.2","213.59","9","60.03","19"
"03/12/12 16:24:00","23.967","16.7","213.51","30","60.03","18"
"03/12/12 16:29:00","23.9683","11.7","215.07","260","60.03","18"
"03/12/12 16:34:01","23.9697","22.4","215.12","131","60.03","18"
"03/12/12 16:39:01","23.9722","46.4","215.56","287","60.03","18"
"03/12/12 16:44:01","23.9755","33.3","215.56","66","60.0","18"
"03/12/12 16:49:00","23.9774","18.0","214.6","212","60.03","18"
"03/12/12 16:54:01","23.9787","11.9","214.96","14","60.03","18"
"03/12/12 16:59:00","23.9801","25.1","214.82","95","60.03","18"
"03/12/12 17:04:00","23.9821","47.8","214.98","329","60.07","18"
"03/12/12 17:09:01","23.9845","14.0","213.65","15","60.03","18"
"03/12/12 17:14:01","23.9851","13.9","213.38","21","60.0","18"
"03/12/12 17:19:01","23.9856","11.0","213.15","70","60.0","17"
"03/12/12 17:24:02","23.9858","0.0","212.69","0","60.03","17"
"03/12/12 17:29:00","23.9861","0.0","212.97","0","60.07","17"
"03/12/12 17:34:00","23.9863","2.5","212.61","0","60.03","17"
"03/12/12 17:39:01","23.9867","0.0","214.3","0","60.03","17"
"03/12/12 17:44:01","23.9871","12.9","214.04","0","60.0","16"
"03/13/12 08:14:00","23.9889","15.7","212.83","7","60.03","7"
"03/13/12 08:19:01","23.9904","18.2","214.94","114","60.03","8"
"03/13/12 08:24:01","23.9921","26.3","214.02","218","60.03","8"
"03/13/12 08:29:01","23.9973","80.4","215.49","394","60.0","9"
"03/13/12 08:34:01","24.0032","72.5","216.3","363","60.0","9"
"03/13/12 08:39:00","24.0102","68.7","215.18","349","60.03","10"
"03/13/12 08:44:01","24.0168","36.2","214.85","338","60.07","10"
"03/13/12 08:49:00","24.0232","101.2","216.02","486","60.0","11"
"03/13/12 08:54:01","24.0294","89.3","215.94","436","60.03","11"
"03/13/12 08:59:00","24.0341","64.0","215.66","182","60.03","11"
"03/13/12 09:04:02","24.0389","39.2","215.37","227","60.03","11"
"03/13/12 09:09:01","24.0453","64.1","215.21","224","60.03","12"
"03/13/12 09:14:01","24.0548","128.5","216.95","603","60.03","13"
"03/13/12 09:19:01","24.0644","121.4","216.02","574","60.0","13"
"03/13/12 09:24:01","24.074","127.5","216.56","597","60.03","13"
"03/13/12 09:29:02","24.0839","128.0","217.07","602","60.03","13"
"03/13/12 09:34:00","24.0939","132.0","217.42","614","60.0","14"
"03/13/12 09:39:02","24.1045","136.7","217.97","631","60.03","14"
"03/13/12 09:44:00","24.1151","139.8","217.51","644","60.03","15"
"03/13/12 09:49:02","24.1262","143.3","218.2","660","60.03","15"
"03/13/12 09:54:00","24.1375","146.6","218.06","677","60.03","15"
"03/13/12 09:59:01","24.1491","150.7","218.35","690","60.03","15"
"03/13/12 10:04:00","24.1609","153.7","218.1","703","60.0","15"
"03/13/12 10:09:02","24.1731","156.9","216.67","723","60.03","15"
"03/13/12 10:14:01","24.1853","159.6","218.24","730","60.03","16"
"03/13/12 10:19:01","24.1979","163.5","218.57","745","60.03","16"
"03/13/12 10:24:01","24.2107","165.8","218.63","755","60.03","16"
"03/13/12 10:29:02","24.2238","168.4","219.06","767","60.03","16"
"03/13/12 10:34:01","24.2369","170.8","218.48","778","60.03","17"
"03/13/12 10:39:02","24.2504","173.9","218.5","788","60.03","17"
"03/13/12 10:44:01","24.2639","174.7","218.67","796","60.0","17"
"03/13/12 10:49:01","24.2777","177.3","218.74","806","60.03","17"
"03/13/12 10:54:01","24.2916","178.8","218.51","811","60.0","18"
"03/13/12 10:59:02","24.3056","180.7","219.36","818","60.0","18"
"03/13/12 11:04:02","24.3197","182.5","219.22","825","60.0","18"
"03/13/12 11:09:01","24.334","182.9","219.01","831","60.03","19"
"03/13/12 11:14:01","24.3483","186.2","219.19","840","60.0","19"
"03/13/12 11:19:00","24.3629","186.9","219.1","844","60.03","19"
"03/13/12 11:29:02","24.3923","190.8","218.64","864","60.0","19"
"03/13/12 11:34:00","24.4071","190.9","219.01","859","60.03","19"
"03/13/12 11:39:00","24.4219","190.6","218.69","865","60.03","19"
"03/13/12 11:44:01","24.4369","191.1","218.75","867","60.03","19"
"03/13/12 11:49:02","24.4519","194.4","219.11","877","60.07","19"
"03/13/12 11:54:01","24.467","194.9","218.76","879","60.03","19"
"03/13/12 11:59:01","24.4823","196.3","218.27","888","60.0","19"
"03/13/12 12:04:02","24.4976","196.1","217.82","884","60.03","19"
"03/13/12 12:09:01","24.5128","195.9","218.52","886","60.0","19"
"03/13/12 12:14:02","24.5281","195.7","218.7","889","60.07","19"
"03/13/12 12:19:01","24.5433","196.0","217.34","890","60.07","20"
"03/13/12 12:24:00","24.5585","195.7","218.47","886","60.03","20"
"03/13/12 12:29:01","24.5738","196.0","217.83","888","60.0","20"
"03/13/12 12:34:01","24.589","196.0","218.6","884","60.03","20"
"03/13/12 12:39:01","24.6043","195.3","217.65","886","60.0","20"
"03/13/12 12:44:01","24.6195","196.0","219.22","878","60.03","20"
"03/13/12 12:49:01","24.6348","194.3","218.73","881","60.03","20"
"03/13/12 12:54:02","24.65","195.9","218.76","886","60.07","20"
"03/13/12 12:59:01","24.6652","195.1","219.48","879","60.07","20"
"03/13/12 13:04:00","24.6804","195.0","218.4","881","60.0","20"
"03/13/12 13:09:01","24.6956","194.2","218.16","879","60.03","20"
"03/13/12 13:14:01","24.7106","192.6","218.12","873","60.03","20"
"03/13/12 13:19:01","24.7256","192.1","218.0","869","60.0","20"
"03/13/12 13:24:00","24.7406","191.0","218.38","868","60.03","20"
"03/13/12 13:29:00","24.7554","189.1","217.69","857","60.03","20"
"03/13/12 13:34:02","24.7695","187.8","218.11","852","60.03","20"
"03/13/12 13:39:01","24.784","187.1","219.07","845","60.03","20"
"03/13/12 13:44:01","24.7986","185.7","218.7","842","60.0","20"
"03/13/12 13:49:02","24.813","183.8","218.45","832","60.03","20"
"03/13/12 13:54:01","24.8272","181.7","219.22","821","60.03","20"
"03/13/12 13:59:01","24.8414","181.5","219.25","824","60.03","20"
"03/13/12 14:04:01","24.8554","178.9","218.25","814","60.0","20"
"03/13/12 14:09:01","24.8693","177.0","218.29","804","60.0","20"
"03/13/12 14:14:01","24.8829","175.4","218.65","796","60.03","20"
"03/13/12 14:19:02","24.8966","173.2","219.0","783","60.03","21"
"03/13/12 14:24:02","24.91","170.7","218.48","777","60.03","21"
"03/13/12 14:29:02","24.9232","168.5","218.84","766","60.03","20"
"03/13/12 14:34:02","24.9362","166.6","218.57","756","60.0","21"
"03/13/12 14:39:01","24.9491","164.3","218.18","743","60.0","20"
"03/13/12 14:44:01","24.9617","161.8","218.12","742","60.0","20"
"03/13/12 14:49:02","24.9743","158.6","218.17","725","60.0","20"
"03/13/12 14:54:01","24.9865","156.1","218.56","715","60.03","20"
"03/13/12 14:59:02","24.9986","153.5","219.02","702","60.03","20"
"03/13/12 15:04:01","25.0104","150.3","217.88","691","60.03","20"
"03/13/12 15:09:01","25.022","147.9","218.21","677","60.03","20"
"03/13/12 15:14:00","25.0333","144.8","216.9","671","60.03","20"
"03/13/12 15:19:01","25.0445","142.1","217.88","655","60.0","19"
"03/13/12 15:24:01","25.0554","138.5","217.85","643","60.0","19"
"03/13/12 15:29:01","25.0661","135.1","217.36","630","60.03","19"
"03/13/12 15:34:01","25.0764","132.3","217.41","615","60.03","19"
"03/13/12 15:39:02","25.0866","127.7","216.48","596","60.0","19"
"03/13/12 15:44:02","25.0964","124.4","216.23","588","60.03","19"
"03/13/12 16:02:41","25.1305","109.5","215.84","524","60.03","18"
"03/13/12 16:07:41","25.1389","106.0","216.2","506","60.03","18"
"03/13/12 16:12:40","25.1469","101.5","216.3","486","60.0","18"
"03/13/12 16:17:40","25.1547","97.6","216.42","469","60.0","18"
"03/13/12 16:22:41","25.162","93.0","216.04","452","60.0","18"
"03/13/12 16:27:41","25.1691","88.9","215.91","430","60.03","18"
"03/13/12 16:32:41","25.1759","84.4","215.28","413","60.03","18"
"03/13/12 16:37:41","25.1822","78.4","215.41","389","60.03","18"
"03/13/12 16:42:41","25.188","72.2","214.4","363","60.0","17"
"03/13/12 16:47:40","25.1935","66.6","214.25","341","60.03","17"
"03/13/12 16:57:42","25.2027","55.3","215.18","279","60.03","17"
"03/13/12 17:02:41","25.2059","42.2","213.87","148","60.03","17"
"03/13/12 17:07:40","25.2089","54.3","214.16","400","60.07","17"
"03/13/12 17:12:41","25.2126","54.0","213.13","229","60.03","17"
"03/13/12 17:17:40","25.2162","49.1","213.64","377","60.03","17"
"03/13/12 17:22:40","25.2194","35.4","214.22","92","60.0","17"
"03/13/12 17:27:42","25.2223","37.8","214.55","135","60.0","16"
"03/13/12 17:32:41","25.2248","34.0","214.05","201","60.03","16"
"03/13/12 17:37:41","25.227","23.8","214.59","170","60.0","15"
"03/13/12 17:42:41","25.2289","20.0","213.61","35","60.0","15"
"03/13/12 17:47:41","25.2305","13.2","213.4","159","60.0","15"
"03/13/12 17:52:40","25.2318","21.3","214.52","189","60.03","15"
"03/13/12 17:57:42","25.2328","11.3","213.41","21","60.07","14"
"03/13/12 18:02:41","25.2336","5.9","214.11","202","60.03","14"
"03/13/12 18:07:40","25.2343","7.3","214.13","0","60.03","13"
"03/13/12 18:12:42","25.2347","10.6","213.6","1","60.0","13"
"03/13/12 18:17:42","25.235","0.0","213.15","0","60.0","13"
"03/14/12 12:26:03","25.7415","176.3","217.67","802","60.03","28"
"03/14/12 12:31:02","25.7549","154.1","216.52","715","60.03","28"
"03/14/12 12:36:02","25.7688","173.4","217.5","794","60.0","29"
"03/14/12 12:41:03","25.7817","165.6","218.5","756","60.03","29"
"03/14/12 12:46:02","25.7954","185.2","218.1","843","60.03","30"
"03/14/12 12:51:02","25.8097","135.6","217.91","628","60.0","30"
"03/14/12 12:56:03","25.816","66.2","215.24","348","60.0","29"
"03/14/12 13:01:03","25.8272","132.9","217.23","618","60.03","30"
"03/14/12 13:06:01","25.8405","178.9","218.52","812","60.0","30"
"03/14/12 13:11:02","25.8539","166.5","218.33","762","60.03","31"
"03/14/12 13:16:03","25.8662","150.5","218.12","687","60.0","32"
"03/14/12 13:21:03","25.878","151.5","217.96","696","60.03","32"
"03/14/12 13:26:03","25.8906","165.0","217.39","760","60.03","33"
"03/14/12 13:31:03","25.9021","156.1","217.71","717","60.03","33"
"03/14/12 13:36:01","25.9111","147.5","217.31","681","60.0","33"
"03/14/12 13:41:02","25.9214","124.5","217.02","583","60.0","32"
"03/14/12 13:46:03","25.9335","166.6","218.08","764","60.03","33"
"03/14/12 13:51:03","25.9461","152.4","218.11","702","60.03","33"
"03/14/12 13:56:02","25.958","159.8","218.46","728","60.03","33"
"03/14/12 14:01:02","25.9703","155.8","218.57","712","60.03","33"
"03/14/12 14:06:02","25.9824","152.5","217.99","702","60.03","33"
"03/14/12 14:11:03","25.9942","149.7","218.21","692","60.07","34"
"03/14/12 14:16:03","26.0057","147.5","217.08","680","60.0","35"
"03/14/12 14:21:02","26.0172","146.2","218.11","671","60.0","36"
"03/14/12 14:26:03","26.0285","144.3","218.16","668","60.07","36"
"03/14/12 14:31:02","26.0396","142.5","218.75","655","60.03","37"
"03/14/12 14:36:02","26.0506","143.0","218.68","658","60.03","37"
"03/14/12 14:41:03","26.0617","140.7","218.43","648","60.03","36"
"03/14/12 14:46:02","26.0725","138.3","217.82","642","60.0","37"
"03/14/12 14:51:02","26.0832","136.4","218.33","633","60.03","37"
"03/14/12 14:56:03","26.0937","134.3","218.06","622","60.03","36"
"03/14/12 15:01:01","26.104","132.1","218.07","616","60.03","36"
"03/14/12 15:06:03","26.1141","127.7","217.82","594","60.0","37"
"03/14/12 15:11:03","26.124","124.1","217.83","578","60.03","37"
"03/14/12 15:16:02","26.1335","121.6","217.18","572","60.0","36"
"03/14/12 15:21:02","26.1428","119.1","217.35","561","60.0","36"
"03/14/12 15:26:03","26.1521","116.5","216.16","551","60.03","36"
"03/14/12 15:31:03","26.1612","113.8","216.72","541","60.07","36"
"03/14/12 15:36:03","26.1697","102.2","216.6","489","60.0","35"
"03/14/12 15:41:01","26.1774","96.3","216.14","465","60.03","36"
"03/14/12 15:46:01","26.1846","91.8","216.77","443","60.0","36"
"03/14/12 15:51:03","26.1916","85.0","215.74","417","60.0","35"
"03/14/12 15:56:03","26.1983","89.6","215.67","433","60.0","35"
"03/14/12 16:01:03","26.2052","86.2","215.57","419","60.07","35"
"03/14/12 16:06:01","26.2119","87.9","216.12","425","60.03","35"
"03/14/12 16:11:02","26.2184","82.7","215.73","405","60.03","35"
"03/14/12 16:16:03","26.2246","77.6","215.7","381","60.03","35"
"03/14/12 16:21:02","26.2303","71.8","215.8","358","60.03","36"
"03/14/12 16:26:03","26.2358","67.8","215.43","345","60.03","35"
"03/14/12 16:31:03","26.2411","63.9","215.1","329","60.03","35"
"03/14/12 16:36:03","26.2453","57.6","214.16","383","60.03","34"
"03/14/12 16:41:03","26.2494","58.8","215.21","334","60.03","34"
"03/14/12 16:46:03","26.2533","40.4","214.79","348","60.0","33"
"03/14/12 16:51:03","26.2571","48.9","215.31","329","60.03","32"
"03/14/12 16:56:01","26.2609","53.0","214.73","160","60.0","30"
"03/14/12 17:01:02","26.2646","40.2","214.87","127","60.07","29"
"03/14/12 17:06:02","26.2678","44.5","214.54","227","60.03","28"
"03/14/12 17:11:03","26.2705","27.4","213.76","196","60.03","27"
"03/14/12 17:16:01","26.2728","25.6","213.78","151","60.03","26"
"03/14/12 17:21:03","26.2752","26.3","213.95","245","60.03","26"
"03/14/12 17:26:03","26.2774","23.7","213.96","246","60.03","25"
"03/14/12 17:31:01","26.2794","13.9","214.06","180","60.0","24"
"03/14/12 17:36:02","26.2809","13.6","213.43","19","60.0","24"
"03/14/12 17:41:02","26.2822","13.5","213.92","3","60.03","24"
"03/14/12 17:46:02","26.283","0.2","213.58","0","60.03","23"
"03/14/12 17:51:03","26.2836","0.0","213.32","0","60.03","22"
"03/14/12 17:56:03","26.2841","0.0","213.36","50","60.03","22"
"03/14/12 18:01:03","26.2846","4.9","212.84","234","60.03","21"
"03/14/12 18:06:03","26.2851","14.4","214.1","3","60.03","20"
"03/14/12 18:11:02","26.2855","10.7","213.07","0","60.03","20"
"03/14/12 18:16:03","26.2859","0.0","213.18","0","60.03","19"
"03/14/12 18:21:02","26.2863","0.0","213.0","0","60.03","19"
"03/14/12 18:26:02","26.2865","6.0","213.62","0","60.03","19"
"03/15/12 07:26:04","26.2872","8.6","213.98","0","60.03","9"
"03/15/12 07:31:02","26.2879","11.8","213.86","6","60.0","9"
"03/15/12 07:36:02","26.2889","15.7","214.46","103","60.03","9"
"03/15/12 07:41:03","26.2902","11.9","214.68","25","60.03","9"
"03/15/12 07:46:03","26.2919","30.7","215.39","42","60.03","9"
"03/15/12 07:51:02","26.2937","21.8","214.21","80","60.03","10"
"03/15/12 07:56:03","26.2956","27.0","213.55","194","60.0","10"
"03/15/12 08:01:02","26.2978","28.8","215.68","238","60.03","10"
"03/15/12 08:06:02","26.3007","36.4","215.22","123","60.0","11"
"03/15/12 08:11:03","26.3039","41.7","215.32","259","60.03","11"
"03/15/12 08:16:03","26.3077","60.1","216.2","266","60.03","11"
"03/15/12 08:21:04","26.3114","54.5","215.52","113","60.0","12"
"03/15/12 08:26:02","26.3152","47.1","215.56","365","60.07","12"
"03/15/12 08:31:02","26.319","36.2","216.05","301","60.0","13"
"03/15/12 08:36:03","26.3226","44.2","216.38","292","60.03","13"
"03/15/12 08:41:02","26.3258","36.1","215.54","138","60.0","13"
"03/15/12 08:46:02","26.3294","58.4","215.92","227","60.03","13"
"03/15/12 08:51:02","26.3334","64.2","216.29","309","60.0","14"
"03/15/12 08:56:02","26.3375","59.2","216.43","350","60.03","14"
"03/15/12 09:01:03","26.3416","50.1","216.76","80","60.0","14"
"03/15/12 09:06:03","26.3459","77.6","214.98","380","60.03","15"
"03/15/12 09:11:02","26.3516","66.5","216.34","337","60.03","15"
"03/15/12 09:16:03","26.3559","48.0","216.24","139","60.0","15"
"03/15/12 09:21:03","26.3596","47.3","216.31","379","60.03","15"
"03/15/12 09:26:04","26.3635","43.4","217.11","387","60.03","15"
"03/15/12 09:31:02","26.3675","48.7","216.96","79","60.0","15"
"03/15/12 09:36:02","26.3718","51.1","216.77","83","60.0","15"
"03/15/12 09:41:03","26.3771","72.9","217.76","357","60.0","15"
"03/15/12 09:46:03","26.3834","84.3","217.8","412","60.03","16"
"03/15/12 09:51:02","26.3898","90.6","216.89","436","60.03","17"
"03/15/12 09:56:03","26.3972","96.9","217.57","464","60.0","17"
"03/15/12 10:01:02","26.4049","102.2","218.21","486","60.03","18"
"03/15/12 10:06:02","26.4123","83.6","217.32","407","60.03","18"
"03/15/12 10:11:03","26.4182","73.4","217.12","366","60.03","18"
"03/15/12 10:16:03","26.4235","62.9","216.72","323","60.0","18"
"03/15/12 10:21:03","26.4291","77.6","217.11","383","60.03","18"
"03/15/12 10:26:03","26.4356","80.0","217.23","392","60.03","18"
"03/15/12 10:31:02","26.4415","72.9","215.42","366","60.03","18"
"03/15/12 10:36:03","26.4469","64.4","215.43","326","60.03","18"
"03/15/12 10:41:04","26.4524","81.3","215.82","398","60.03","18"
"03/15/12 10:46:02","26.4585","84.9","216.46","412","60.03","18"
"03/15/12 10:51:02","26.4655","102.8","217.19","494","60.03","18"
"03/15/12 10:56:02","26.4745","117.4","217.77","552","60.07","19"
"03/15/12 11:01:03","26.4836","120.0","216.47","564","60.0","20"
"03/15/12 11:06:03","26.4939","132.2","217.09","616","60.03","21"
"03/15/12 11:11:02","26.5042","130.9","217.31","608","60.03","22"
"03/15/12 11:16:03","26.5151","147.7","218.07","679","60.03","23"
"03/15/12 11:21:03","26.5267","147.3","218.51","678","60.0","24"
"03/15/12 11:26:02","26.538","150.8","218.09","691","60.03","25"
"03/15/12 11:31:03","26.5497","148.0","217.93","686","60.03","26"
"03/15/12 11:36:03","26.5608","133.0","215.7","624","60.03","26"
"03/15/12 11:41:04","26.5709","132.6","217.64","615","60.0","26"
"03/15/12 11:46:02","26.5809","132.7","216.75","618","60.03","26"
"03/15/12 11:51:03","26.5913","129.6","217.11","605","60.0","26"
"03/15/12 11:56:02","26.6013","155.6","217.11","720","60.07","27"
"03/15/12 12:01:02","26.6136","162.9","217.87","749","60.03","27"
"03/15/12 12:06:04","26.6261","159.6","217.89","732","60.03","28"
"03/15/12 12:11:03","26.6382","151.7","217.74","699","60.0","29"
"03/15/12 12:16:04","26.6504","156.4","217.18","723","60.03","30"
"03/15/12 12:21:02","26.6619","135.6","216.64","632","60.03","31"
"03/15/12 12:26:02","26.673","151.1","217.03","699","60.03","32"
"03/15/12 12:31:03","26.6848","153.0","218.24","702","60.0","32"
"03/15/12 12:36:03","26.6969","156.1","217.7","717","60.0","32"
"03/15/12 12:41:04","26.7095","162.7","217.95","745","60.0","32"
"03/15/12 12:46:02","26.722","160.2","217.57","734","60.0","32"
"03/15/12 12:51:03","26.7343","153.5","217.57","710","60.03","33"
"03/15/12 12:56:03","26.7466","155.3","217.84","714","60.03","33"
"03/15/12 13:01:04","26.7588","137.4","217.8","638","60.03","34"
"03/15/12 13:06:02","26.7705","141.2","217.01","658","60.03","35"
"03/15/12 13:11:03","26.7829","141.3","218.08","653","60.03","36"
"03/15/12 13:16:04","26.7944","138.8","217.94","644","60.0","36"